Location: Gammelsbach
(49.5261°N, 8.9630°E)
Time: 16:23:26
(UTC+00:00)

Cosmos 1470 Rocket - Pass Details

Date: 17 June 2025
Orbit: 599 x 626 km, 82.5° (Epoch: 19 July)

Event Time Altitude Azimuth Distance (km) Brightness Sun altitude
Rises 20:21:46 0° 349° (N) 2,871 8.1 -6.5°
Reaches altitude 10° 20:23:59 10° 349° (NNW) 1,966 7.2 -6.7°
Maximum altitude 20:28:20 83° 261° (W) 620 3.6 -7.2°
Drops below altitude 10° 20:32:42 10° 174° (S) 1,966 5.6 -7.6°
Enters shadow 20:33:42 - 174° (S) 2,377 6.0 -7.7°
